Find Kosmos-1361

NORAD ID: 13164 Int'l Des: 1982-040 Owner: GUKOS Country: SU operational
LEOCIRCULAR

实时位置

正在加载3D地球...

关于 Kosmos-1361

正在加载描述...

即将过境

Passes for default location (London). Set your location on the main map for personalized predictions.

高度历史

Loading altitude history...

两行轨道根数

1 13164U 82040E 26135.25452109 -.00000032 00000-0 -10692-3 0 9992
2 13164 74.0125 69.1031 0014726 223.7130 248.0957 12.48210438 6019
Epoch: May 15, 2026 • Age: 17 hours

当前状态

高度 1483.7 km
速度 7.12 km/s
星下点 12.60°N, 145.22°W
发射日期 May 6, 1982
运行时间 44 years
类型 other

技术详情

分类 Payload
质量 60.00 kg
干质量 60.00 kg
总质量 60.00 kg
长度 0.80 m
直径 0.80 m
跨度 0.80 m
形状 Poly
制造商 NPOPM
平台类型 Strela-1 11F625
阶段状态 In Orbit
所有者/国家 GUKOS/SU

Most Searched